Location: *
(49.9853°N, 3.5569°E)
Time: 09:46:43
(UTC+00:00)

NOSS 3-4 (A) - Pass Details

Date: 22 September 2019
Orbit: 910 x 1303 km, 63.4° (Epoch: 21 September)

Event Time Altitude Azimuth Distance (km) Brightness Sun altitude
Rises 18:40:09 0° 315° (NW) 3,824 7.6 -9.7°
Reaches altitude 10° 18:42:43 10° 312° (NW) 2,922 7.0 -10.1°
Maximum altitude 18:49:31 58° 236° (SW) 1,333 4.5 -11.1°
Drops below altitude 10° 18:56:58 10° 160° (SSE) 3,182 5.8 -12.3°
Sets 18:59:53 0° 157° (SSE) 4,188 6.4 -12.8°
